User: anonymous   Login
Location: Unspecified
(0.0000°N, 0.0000°E)
Time: 04:37:54
(UTC+00:00)
Language:

Early Bird - Orbit

View from above orbital plane
View from above orbital plane
View from above satellite
View from above satellite

Ground track
Ground track

The orbit data is extracted from the following two-line orbital elements,

1  1317U 65028A   18020.57791245 +.00000137 +00000-0 +00000-0 0  9995
2  1317 000.5255 001.0632 0002726 213.0203 320.8295 01.00309584096397
Epoch (UTC): 20 January 2018 13:52:11
Eccentricity: 0.0002726
inclination: 0.5255°
perigee height: 35764 km
apogee height: 35787 km
right ascension of ascending node: 1.0632°
argument of perigee: 213.0203°
revolutions per day: 1.00309584
mean anomaly at epoch: 320.8295°
orbit number at epoch: 9639

The dashed part of the orbit path shows where the satellite is in the earth's shadow,  

DLR